TimeMST,TemperatureF,Dew PointF,Humidity,Sea Level PressureIn,VisibilityMPH,Wind Direction,Wind SpeedMPH,Gust SpeedMPH,PrecipitationIn,Events,Conditions,WindDirDegrees,DateUTC
12:53 AM,21.0,16.0,81,30.31,4.0,Calm,Calm,-,N/A,,Haze,0,2013-01-08 07:53:00
1:53 AM,21.0,16.0,81,30.29,4.0,Calm,Calm,-,N/A,,Haze,0,2013-01-08 08:53:00
2:53 AM,21.0,17.1,85,30.31,3.0,Calm,Calm,-,N/A,,Overcast,0,2013-01-08 09:53:00
3:53 AM,21.9,17.1,82,30.30,3.0,Calm,Calm,-,N/A,,Haze,0,2013-01-08 10:53:00
4:53 AM,21.0,17.1,85,30.32,3.0,NNW,3.5,-,N/A,,Overcast,340,2013-01-08 11:53:00
5:53 AM,21.0,17.1,85,30.33,3.0,Calm,Calm,-,N/A,,Overcast,0,2013-01-08 12:53:00
7:15 AM,21.2,17.6,86,30.23,2.5,Calm,Calm,-,N/A,,Haze,0,2013-01-08 14:15:00
7:53 AM,19.9,17.1,89,30.35,2.5,Calm,Calm,-,N/A,,Overcast,0,2013-01-08 14:53:00
8:10 AM,19.4,17.6,93,30.24,1.2,Calm,Calm,-,N/A,,Mostly Cloudy,0,2013-01-08 15:10:00
8:53 AM,19.9,17.1,89,30.38,1.2,NNW,3.5,-,N/A,,Overcast,330,2013-01-08 15:53:00
9:53 AM,23.0,19.0,85,30.38,1.5,Calm,Calm,-,N/A,,Mist,0,2013-01-08 16:53:00
10:53 AM,21.9,18.0,85,30.41,1.8,Calm,Calm,-,N/A,,Overcast,0,2013-01-08 17:53:00
11:31 AM,24.8,17.6,74,30.30,2.0,Calm,Calm,-,N/A,,Haze,0,2013-01-08 18:31:00
11:53 AM,24.1,19.0,81,30.38,2.0,Calm,Calm,-,N/A,,Haze,0,2013-01-08 18:53:00
12:53 PM,26.1,19.9,78,30.37,2.0,Calm,Calm,-,N/A,,Haze,0,2013-01-08 19:53:00
2:53 PM,28.0,19.9,72,30.37,2.0,NNW,4.6,-,N/A,,Haze,330,2013-01-08 21:53:00
3:53 PM,28.0,19.9,72,30.39,2.5,Calm,Calm,-,N/A,,Haze,0,2013-01-08 22:53:00
4:53 PM,28.0,21.0,75,30.40,2.5,NW,3.5,-,N/A,,Haze,310,2013-01-08 23:53:00
5:30 PM,28.4,21.2,74,30.32,3.0,Calm,Calm,-,N/A,,Haze,0,2013-01-09 00:30:00
5:53 PM,28.0,21.9,78,30.41,4.0,Calm,Calm,-,N/A,,Haze,0,2013-01-09 00:53:00
6:53 PM,28.0,21.9,78,30.42,3.0,Calm,Calm,-,N/A,,Haze,0,2013-01-09 01:53:00
7:53 PM,27.0,23.0,85,30.44,2.5,NW,3.5,-,N/A,,Overcast,320,2013-01-09 02:53:00
8:06 PM,26.6,21.2,80,30.35,3.0,Calm,Calm,-,N/A,,Overcast,0,2013-01-09 03:06:00
8:53 PM,27.0,21.9,81,30.45,3.0,Calm,Calm,-,N/A,,Haze,0,2013-01-09 03:53:00
10:53 PM,26.1,21.0,81,30.46,3.0,Calm,Calm,-,N/A,,Haze,0,2013-01-09 05:53:00
11:53 PM,27.0,23.0,85,30.47,3.0,Calm,Calm,-,N/A,,Overcast,0,2013-01-09 06:53:00